Location: Seven Kings
(51.5667°N, 0.1000°E)
Time: 02:40:47
(UTC+00:00)

NOSS 3-3 (C) - Pass Details

Date: 29 October 2020
Orbit: 825 x 1387 km, 63.4° (Epoch: 22 November)

Event Time Altitude Azimuth Distance (km) Brightness Sun altitude
Rises 19:54:24 0° 240° (WSW) 3,477 7.4 -30.9°
Reaches altitude 10° 19:56:48 10° 245° (WSW) 2,594 6.7 -31.3°
Maximum altitude 20:02:46 59° 324° (NW) 1,138 4.4 -32.1°
Enters shadow 20:03:42 54° 358° (N) 1,212 4.5 -32.3°
